Hourly Data Report for October 16, 2020

MUSKOKA
ONTARIO
Current Station Operator: NAVCAN

44°58'29.000" N
79°18'12.000" W
281.90 m
6115529
71532
YQA

Download Data

Hourly Data (October 2020)
Hourly Data Report for October 16, 2020
TIME Temp Definition
°C
Dew Point Definition
°C
Rel Hum Definition
%
Wind Dir Definition
10's deg

Wind Spd Definition
km/h
Visibility Definition
km
Stn Press Definition
kPa
Hmdx Definition


Wind Chill Definition


Weather Definition


00:00 6.3 4.6 89 29 9 16.1 97.96     Rain
01:00 6.0 5.1 94 25 5 16.1 97.98     Rain
02:00 5.7 5.0 95 23 8 16.1 98.04     Rain
03:00 5.5 5.1 97 23 4 16.1 98.04     LegendNANA
04:00 5.4 5.0 97 21 5 16.1 98.09     LegendNANA
05:00 4.6 2.6 87 29 11 14.5 98.19     Rain
06:00 4.3 3.0 91 29 9 16.1 98.25     LegendNANA
07:00 4.3 1.8 84 29 8 16.1 98.33     LegendNANA
08:00 3.8 2.0 88 32 8 16.1 98.43     Rain
09:00 4.8 2.9 87 LegendMM 4 16.1 98.48     LegendNANA
10:00 4.3 2.6 88   0 16.1 98.54     Rain
11:00 6.1 3.0 80 20 5 16.1 98.55     LegendNANA
12:00 7.2 1.8 68 28 11 16.1 98.51     LegendNANA
13:00 5.9 2.6 79 32 22 16.1 98.53     LegendNANA
14:00 6.3 1.7 72 32 5 16.1 98.50     LegendNANA
15:00 8.2 -1.3 51 22 11 16.1 98.50     LegendNANA
16:00 8.2 -3.0 45 22 15 16.1 98.51     LegendNANA
17:00 7.3 -2.5 50 20 13 16.1 98.54     LegendNANA
18:00 3.4 -0.3 77 16 5 16.1 98.55     LegendNANA
19:00 3.0 -0.3 79 15 5 16.1 98.59     LegendNANA
20:00 3.4 0.1 79 17 8 16.1 98.59     LegendNANA
21:00 5.9 -0.8 62 23 13 16.1 98.68     LegendNANA
22:00 3.4 0.1 79 23 5 16.1 98.68     LegendNANA
23:00 1.1 -0.4 90 18 9 16.1 98.76     LegendNANA

Notes on Data Quality.

Legend

  • E = Estimated
  • M = Missing
  • NA = Not Available*
  • [empty] = Indicates an unobserved value
Date modified: